EW4096 Weather Reports


time (UTC)temp
F
wind
direction
speed
knots
gust
knots
rain 1hr
in
rain 24hr
in
rain mn
in
humidity
%
barometer
mb
20260509223440 71 306 0.0 0.0 0.00 0.00 0.00 55 1007.6
20260509222945 71 306 0.0 0.0 0.00 0.00 0.00 55 1007.5
20260509222941 71 306 0.0 0.0 0.00 0.00 0.00 55 1007.6
20260509221941 71 302 0.0 0.0 0.00 0.00 0.00 53 1007.6
20260509221441 71 302 0.0 0.0 0.00 0.00 0.00 54 1007.6
20260509220940 71 302 0.0 0.0 0.00 0.00 0.00 55 1007.5
20260509220445 72 292 0.0 0.0 0.00 0.00 0.00 53 1007.4
20260509220441 71 302 0.0 0.0 0.00 0.00 0.00 52 1007.5
20260509220045 71 293 0.0 0.0 0.00 0.00 0.00 55 1007.5
20260509215441 71 292 0.0 0.0 0.00 0.00 0.00 54 1007.4
20260509214444 70 293 0.0 0.0 0.00 0.00 0.00 55 1007.4
20260509214440 71 293 0.0 0.0 0.00 0.00 0.00 56 1007.4
20260509213440 70 246 0.0 0.0 0.00 0.00 0.00 55 1007.4
20260509212943 70 294 0.0 0.0 0.00 0.00 0.00 54 1007.4
20260509212938 70 290 0.0 0.0 0.00 0.00 0.00 55 1007.4
20260509211936 70 329 0.0 0.0 0.00 0.00 0.00 55 1007.5
20260509211437 70 340 0.0 0.0 0.00 0.00 0.00 55 1007.5
20260509210938 69 338 0.0 0.0 0.00 0.00 0.00 58 1007.6
20260509210934 70 338 0.0 0.0 0.00 0.00 0.00 57 1007.5
20260509205932 68 339 0.0 0.0 0.00 0.00 0.00 62 1007.6
20260509205430 67 348 0.0 0.0 0.00 0.00 0.00 63 1007.6
20260509204930 67 348 0.0 0.0 0.00 0.00 0.00 60 1007.7
20260509204428 67 17 0.0 0.0 0.00 0.00 0.00 61 1007.8
20260509203928 67 320 0.0 0.0 0.00 0.00 0.00 58 1007.8
20260509203429 67 298 0.0 0.0 0.00 0.00 0.00 59 1007.8
20260509202928 67 355 0.0 0.0 0.00 0.00 0.00 62 1007.8
20260509202428 67 355 0.0 0.0 0.00 0.00 0.00 59 1007.8
20260509201929 67 0 0.0 0.0 0.00 0.00 0.00 59 1007.7
20260509201426 67 0 0.0 0.0 0.00 0.00 0.00 58 1007.7
20260509200926 68 13 0.0 0.0 0.00 0.00 0.00 58 1007.7
20260509200427 68 5 0.0 0.0 0.00 0.00 0.00 57 1007.8
20260509195925 68 306 0.0 0.0 0.00 0.00 0.00 59 1007.8
20260509195424 68 304 0.0 0.0 0.00 0.00 0.00 57 1007.8
20260509194924 68 304 0.0 0.0 0.00 0.00 0.00 58 1007.8
20260509194424 68 302 0.0 0.0 0.00 0.00 0.00 56 1007.9
20260509193924 68 302 0.0 0.0 0.00 0.00 0.00 57 1007.9
20260509193424 68 302 0.0 0.0 0.00 0.00 0.00 56 1007.9
20260509192924 68 304 0.0 0.0 0.00 0.00 0.00 55 1007.9
20260509192425 68 304 0.0 0.0 0.00 0.00 0.00 59 1008.0
20260509191924 68 306 0.0 0.0 0.00 0.00 0.00 58 1007.9
20260509191429 68 308 0.0 0.0 0.00 0.00 0.00 57 1008.1
20260509191424 67 306 0.0 0.0 0.00 0.00 0.00 56 1007.9
20260509190924 67 306 0.0 0.0 0.00 0.00 0.00 57 1008.0
20260509190527 67 309 0.0 0.0 0.00 0.00 0.00 57 1008.2
20260509185422 67 308 0.0 0.0 0.00 0.00 0.00 57 1008.2
20260509184926 67 308 0.0 0.0 0.00 0.00 0.00 56 1008.3
20260509184922 67 308 0.0 0.0 0.00 0.00 0.00 59 1008.3
20260509183922 67 296 0.0 0.0 0.00 0.00 0.00 60 1008.4
20260509183422 67 308 0.0 0.0 0.00 0.00 0.00 56 1008.7
20260509182922 67 252 0.0 0.0 0.00 0.00 0.00 59 1008.6
20260509182422 66 265 0.0 0.0 0.00 0.00 0.00 63 1008.5
20260509181921 66 325 0.0 0.0 0.00 0.00 0.00 65 1008.5
20260509181420 65 16 0.0 0.0 0.00 0.00 0.00 61 1008.6
20260509180919 65 355 0.0 0.0 0.00 0.00 0.00 60 1008.9
20260509180420 65 350 0.0 0.0 0.00 0.00 0.00 64 1008.9
20260509175920 64 350 0.0 0.0 0.00 0.00 0.00 62 1009.0
20260509175420 64 329 0.0 0.0 0.00 0.00 0.00 61 1009.3
20260509174920 65 329 0.0 0.0 0.00 0.00 0.00 61 1009.5
20260509174420 64 155 0.0 0.0 0.00 0.00 0.00 62 1009.5
20260509173920 64 157 0.0 0.0 0.00 0.00 0.00 63 1009.7
20260509173420 64 157 0.0 0.0 0.00 0.00 0.00 65 1009.6
20260509172920 63 157 0.0 0.0 0.00 0.00 0.00 68 1009.8
20260509172420 63 242 0.0 0.0 0.00 0.00 0.00 65 1009.8
20260509171920 63 286 0.0 0.0 0.00 0.00 0.00 64 1010.1
20260509171419 63 316 0.0 0.0 0.00 0.00 0.00 65 1010.2
20260509170920 62 316 0.0 0.0 0.00 0.00 0.00 66 1010.3
20260509170420 62 316 0.0 0.0 0.00 0.00 0.00 66 1010.2
20260509165919 62 316 0.0 0.0 0.00 0.00 0.00 66 1010.1
20260509165420 63 315 0.0 0.0 0.00 0.00 0.00 65 1010.1
20260509164918 63 338 0.0 0.0 0.00 0.00 0.00 65 1009.9
20260509164422 63 338 0.0 0.0 0.00 0.00 0.00 64 1009.7
20260509163918 63 338 0.0 0.0 0.00 0.00 0.00 65 1009.6
20260509163418 63 5 0.0 0.0 0.00 0.00 0.00 64 1009.6
20260509162918 63 5 0.0 0.0 0.00 0.00 0.00 66 1009.7
20260509162427 63 355 0.0 0.0 0.00 0.00 0.00 66 1009.8
20260509162423 63 323 0.0 0.0 0.00 0.00 0.00 65 1009.7
20260509161418 63 355 0.0 0.0 0.00 0.00 0.00 62 1009.9
20260509160918 63 355 0.0 0.0 0.00 0.00 0.00 63 1009.9
20260509160421 63 5 0.0 0.0 0.00 0.00 0.00 62 1009.8
20260509160417 63 17 0.0 0.0 0.00 0.00 0.00 63 1009.8
20260509155415 63 5 0.0 0.0 0.00 0.00 0.00 61 1009.9
20260509154916 63 5 0.0 0.0 0.00 0.00 0.00 61 1010.1
20260509154416 63 21 0.0 0.0 0.00 0.00 0.00 61 1010.1
20260509153916 63 28 0.0 0.0 0.00 0.00 0.00 62 1009.9
20260509153416 62 28 0.0 0.0 0.00 0.00 0.00 62 1010.1
20260509152913 62 28 0.0 0.0 0.00 0.00 0.00 64 1010.2
20260509152414 62 13 0.0 0.0 0.00 0.00 0.00 63 1010.2
20260509151912 62 13 0.0 0.0 0.00 0.00 0.00 62 1010.2
20260509151413 61 9 0.0 0.0 0.00 0.00 0.00 64 1010.3
20260509151409 62 9 0.0 0.0 0.00 0.00 0.00 64 1010.3
20260509150408 61 257 0.0 0.0 0.00 0.00 0.00 66 1010.4
20260509145905 61 267 0.0 0.0 0.00 0.00 0.00 66 1010.5
20260509145406 60 267 0.0 0.0 0.00 0.00 0.00 67 1010.5
20260509144903 60 267 0.0 0.0 0.00 0.00 0.00 69 1010.5
20260509144404 60 153 0.0 0.0 0.00 0.00 0.00 70 1010.5
20260509143906 59 153 0.0 0.0 0.00 0.00 0.00 71 1010.5
20260509143902 59 153 0.0 0.0 0.00 0.00 0.00 71 1010.4
20260509143006 58 153 0.0 0.0 0.00 0.00 0.00 70 1009.9
20260509142906 59 153 0.0 0.0 0.00 0.00 0.00 70 1010.5
20260509142902 59 153 0.0 0.0 0.00 0.00 0.00 72 1010.5
20260509141902 58 153 0.0 0.0 0.00 0.00 0.00 69 1010.3
20260509140902 58 153 0.0 0.0 0.00 0.00 0.00 70 1009.8
20260509140402 58 153 0.0 0.0 0.00 0.00 0.00 71 1009.7
20260509135901 58 153 0.0 0.0 0.00 0.00 0.00 72 1009.8
20260509135402 58 153 0.0 0.0 0.00 0.00 0.00 73 1009.9
20260509134903 58 153 0.0 0.0 0.00 0.00 0.00 73 1009.9
20260509134401 58 153 0.0 0.0 0.00 0.00 0.00 73 1010.1
20260509133902 58 153 0.0 0.0 0.00 0.00 0.00 72 1010.1
20260509133401 58 153 0.0 0.0 0.00 0.00 0.00 70 1010.2
20260509132902 58 153 0.0 0.0 0.00 0.00 0.00 70 1010.3
20260509132402 58 153 0.0 0.0 0.00 0.00 0.00 69 1010.1
20260509131901 58 153 0.0 0.0 0.00 0.00 0.00 71 1009.9
20260509131406 57 153 0.0 0.0 0.00 0.00 0.00 68 1009.8
20260509131402 57 153 0.0 0.0 0.00 0.00 0.00 70 1009.9
20260509130400 57 153 0.0 0.0 0.00 0.00 0.00 68 1009.8
20260509125858 57 153 0.0 0.0 0.00 0.00 0.00 68 1009.9
20260509125357 57 153 0.0 0.0 0.00 0.00 0.00 67 1009.8
20260509124856 57 168 0.0 0.0 0.00 0.00 0.00 68 1009.7
20260509124353 57 180 0.0 0.0 0.00 0.00 0.00 69 1009.7
20260509123853 57 182 0.0 0.0 0.00 0.00 0.00 69 1009.7
20260509123358 57 182 0.0 0.0 0.00 0.00 0.00 67 1009.7
20260509123354 57 182 0.0 0.0 0.00 0.00 0.00 67 1009.7
20260509122853 57 182 0.0 0.0 0.00 0.00 0.00 67 1009.7
20260509121853 57 182 0.0 0.0 0.00 0.00 0.00 66 1009.8
20260509121353 57 182 0.0 0.0 0.00 0.00 0.00 65 1009.8
20260509120857 58 187 0.0 0.0 0.00 0.00 0.00 62 1009.7
20260509120853 58 181 0.0 0.0 0.00 0.00 0.00 65 1009.9
20260509120351 58 187 0.0 0.0 0.00 0.00 0.00 63 1009.9
20260509115352 58 299 0.0 0.0 0.00 0.00 0.00 60 1009.6
20260509114851 58 291 0.0 0.0 0.00 0.00 0.00 59 1009.3
20260509114351 58 190 0.0 0.0 0.00 0.00 0.00 59 1009.4
20260509113852 58 190 0.0 0.0 0.00 0.00 0.00 59 1009.6
20260509113349 58 292 0.0 0.9 0.00 0.00 0.00 60 1009.5
20260509112855 57 263 0.0 0.0 0.00 0.00 0.00 62 1009.6
20260509112849 57 280 0.0 0.9 0.00 0.00 0.00 61 1009.4
20260509112458 56 279 0.0 0.0 0.00 0.00 0.00 62 1009.6
20260509112350 57 284 0.0 0.0 0.00 0.00 0.00 61 1009.5
20260509110847 56 245 0.0 0.0 0.00 0.00 0.00 63 1009.6
20260509110347 55 189 0.0 0.0 0.00 0.00 0.00 65 1009.6
20260509105851 55 144 0.0 0.0 0.00 0.00 0.00 69 1009.6
20260509105847 55 153 0.0 0.0 0.00 0.00 0.00 68 1009.5
20260509104847 55 144 0.0 0.0 0.00 0.00 0.00 69 1009.4
20260509104347 55 144 0.0 0.0 0.00 0.00 0.00 67 1009.4
20260509103848 55 144 0.0 0.0 0.00 0.00 0.00 66 1009.4
20260509103351 55 144 0.0 0.0 0.00 0.00 0.00 66 1009.5
20260509103347 55 144 0.0 0.0 0.00 0.00 0.00 66 1009.4
20260509102345 55 144 0.0 0.0 0.00 0.00 0.00 66 1009.5
20260509101845 55 144 0.0 0.0 0.00 0.00 0.00 66 1009.5
20260509101346 55 144 0.0 0.0 0.00 0.00 0.00 66 1009.4
20260509100845 55 144 0.0 0.0 0.00 0.00 0.00 65 1009.3
20260509100346 55 144 0.0 0.0 0.00 0.00 0.00 65 1009.4
20260509095845 55 144 0.0 0.0 0.00 0.00 0.00 65 1009.5
20260509095345 55 144 0.0 0.0 0.00 0.00 0.00 65 1009.4
20260509094845 55 144 0.0 0.0 0.00 0.00 0.00 64 1009.4
20260509094345 55 144 0.0 0.0 0.00 0.00 0.00 63 1009.4
20260509093845 55 144 0.0 0.0 0.00 0.00 0.00 63 1009.4
20260509093347 56 144 0.0 0.0 0.00 0.00 0.00 63 1009.5
20260509093343 56 144 0.0 0.0 0.00 0.00 0.00 63 1009.4
20260509092343 56 144 0.0 0.0 0.00 0.00 0.00 63 1009.4
20260509091843 56 126 0.0 0.0 0.00 0.00 0.00 63 1009.5
20260509091343 56 126 0.0 0.0 0.00 0.00 0.00 62 1009.5
20260509090843 56 242 0.0 0.0 0.00 0.00 0.00 62 1009.4
20260509090343 56 248 0.0 0.0 0.00 0.00 0.00 63 1009.4
20260509085847 56 277 0.0 0.0 0.00 0.00 0.00 63 1009.6
20260509085843 56 271 0.0 0.0 0.00 0.00 0.00 63 1009.5
20260509084842 56 274 0.0 0.0 0.00 0.00 0.00 63 1009.6
20260509084341 56 275 0.0 0.0 0.00 0.00 0.00 63 1009.5
20260509083845 55 190 0.0 0.0 0.00 0.00 0.00 63 1009.7
20260509083841 56 227 0.0 0.0 0.00 0.00 0.00 63 1009.6
20260509082841 55 190 0.0 0.0 0.00 0.00 0.00 64 1009.6
20260509082341 55 190 0.0 0.0 0.00 0.00 0.00 64 1009.7
20260509081841 55 118 0.0 0.0 0.00 0.00 0.00 64 1009.7
20260509081341 55 94 0.0 0.0 0.00 0.00 0.00 64 1009.6
20260509080841 55 94 0.0 0.0 0.00 0.00 0.00 64 1009.6
20260509080341 55 94 0.0 0.0 0.00 0.00 0.00 65 1009.6
20260509075840 55 211 0.0 0.0 0.00 0.00 0.00 64 1009.6
20260509075341 55 211 0.0 0.0 0.00 0.00 0.00 65 1009.6
20260509074843 55 244 0.0 0.0 0.00 0.00 0.00 65 1009.6
20260509074839 55 209 0.0 0.0 0.00 0.00 0.00 64 1009.5
20260509073837 55 244 0.0 0.0 0.00 0.00 0.00 65 1009.7
20260509073337 55 244 0.0 0.0 0.00 0.00 0.00 66 1009.7
20260509072835 54 244 0.0 0.0 0.00 0.00 0.00 66 1009.7
20260509072339 54 212 0.0 0.0 0.00 0.00 0.00 67 1009.7
20260509072335 54 247 0.0 0.0 0.00 0.00 0.00 67 1009.8
20260509071333 53 227 0.0 0.0 0.00 0.00 0.00 68 1009.8
20260509070837 53 245 0.0 0.0 0.00 0.00 0.00 70 1009.7
20260509070832 53 227 0.0 0.0 0.00 0.00 0.00 70 1009.8
20260509070435 53 245 0.0 0.0 0.00 0.00 0.00 71 1009.8
20260509065940 53 245 0.0 0.0 0.00 0.00 0.00 73 1009.8
20260509064827 52 245 0.0 0.0 0.00 0.00 0.00 74 1009.8
20260509064326 52 245 0.0 0.0 0.00 0.00 0.00 73 1009.8
20260509063827 52 245 0.0 0.0 0.00 0.00 0.00 73 1009.8
20260509063327 53 245 0.0 0.0 0.00 0.00 0.00 73 1009.9
20260509062826 52 245 0.0 0.0 0.00 0.00 0.00 73 1010.1
20260509062331 52 245 0.0 0.0 0.00 0.00 0.00 72 1010.2
20260509062327 52 245 0.0 0.0 0.00 0.00 0.00 72 1010.1
20260509061930 52 245 0.0 0.0 0.00 0.00 0.00 73 1010.2
20260509061435 51 245 0.0 0.0 0.00 0.00 0.00 74 1010.3
20260509061431 52 245 0.0 0.0 0.00 0.00 0.00 74 1010.2
20260509055827 51 245 0.0 0.0 0.00 0.00 0.00 75 1010.2
20260509055326 51 245 0.0 0.0 0.00 0.00 0.00 76 1010.2
20260509054827 51 245 0.0 0.0 0.00 0.00 0.00 77 1010.3
20260509054326 50 245 0.0 0.0 0.00 0.00 0.00 78 1010.3
20260509053826 50 245 0.0 0.0 0.00 0.00 0.00 79 1010.3
20260509053327 50 245 0.0 0.0 0.00 0.00 0.00 79 1010.3
20260509052826 50 245 0.0 0.0 0.00 0.00 0.00 79 1010.3
20260509052327 50 245 0.0 0.0 0.00 0.00 0.00 78 1010.2
20260509051827 49 245 0.0 0.0 0.00 0.00 0.00 77 1010.2
20260509051324 50 245 0.0 0.0 0.00 0.00 0.00 77 1010.2
20260509050827 50 245 0.0 0.0 0.00 0.00 0.00 77 1010.5
20260509050823 50 245 0.0 0.0 0.00 0.00 0.00 77 1010.4
20260509050320 50 245 0.0 0.0 0.00 0.00 0.00 77 1010.5
20260509045315 50 245 0.0 0.0 0.00 0.00 0.00 77 1010.6
20260509044819 50 245 0.0 0.0 0.00 0.00 0.00 76 1010.6
20260509044815 50 245 0.0 0.0 0.00 0.00 0.00 77 1010.6
20260509044314 50 245 0.0 0.0 0.00 0.00 0.00 77 1010.6
20260509043916 50 245 0.0 0.0 0.00 0.00 0.00 76 1010.6
20260509042809 50 245 0.0 0.0 0.00 0.00 0.00 75 1010.6
20260509042308 50 245 0.0 0.0 0.00 0.00 0.00 75 1010.6
20260509041807 50 245 0.0 0.0 0.00 0.00 0.00 74 1010.6
20260509041307 50 245 0.0 0.0 0.00 0.00 0.00 74 1010.6
20260509040806 50 245 0.0 0.0 0.00 0.00 0.00 75 1010.6
20260509040305 50 245 0.0 0.0 0.00 0.00 0.00 74 1010.7
20260509035805 50 245 0.0 0.0 0.00 0.00 0.00 74 1010.6
20260509035306 51 245 0.0 0.0 0.00 0.00 0.00 73 1010.7
20260509034803 51 245 0.0 0.0 0.00 0.00 0.00 73 1010.7
20260509034307 51 245 0.0 0.0 0.00 0.00 0.00 73 1010.7
20260509034303 51 245 0.0 0.0 0.00 0.00 0.00 73 1010.7
20260509033911 51 245 0.0 0.0 0.00 0.00 0.00 73 1010.7
20260509033907 51 245 0.0 0.0 0.00 0.00 0.00 73 1010.7
20260509032306 52 245 0.0 0.0 0.00 0.00 0.00 72 1010.6
20260509031803 52 245 0.0 0.0 0.00 0.00 0.00 72 1010.6
20260509031303 52 245 0.0 0.0 0.00 0.00 0.00 72 1010.6
20260509030803 52 245 0.0 0.0 0.00 0.00 0.00 72 1010.6
20260509030301 53 245 0.0 0.0 0.00 0.00 0.00 71 1010.8
20260509025801 53 245 0.0 0.0 0.00 0.00 0.00 71 1010.9
20260509025301 53 245 0.0 0.0 0.00 0.00 0.00 70 1010.9
20260509024801 53 245 0.0 0.0 0.00 0.00 0.00 70 1010.9
20260509024301 53 245 0.0 0.0 0.00 0.00 0.00 70 1011.0
20260509023801 53 245 0.0 0.0 0.00 0.00 0.00 71 1011.0
20260509023301 53 245 0.0 0.0 0.00 0.00 0.00 71 1011.0
20260509022801 54 245 0.0 0.0 0.00 0.00 0.00 71 1011.0
20260509022306 54 245 0.0 0.0 0.00 0.00 0.00 71 1011.0
20260509021800 54 245 0.0 0.0 0.00 0.00 0.00 71 1011.0
20260509021259 55 245 0.0 0.0 0.00 0.00 0.00 70 1011.0
20260509020759 55 245 0.0 0.0 0.00 0.00 0.00 69 1011.0
20260509020259 55 245 0.0 0.0 0.00 0.00 0.00 69 1010.9
20260509015759 55 245 0.0 0.0 0.00 0.00 0.00 70 1010.8
20260509015306 56 245 0.0 0.0 0.00 0.00 0.00 69 1011.0
20260509015259 56 245 0.0 0.0 0.00 0.00 0.00 69 1010.9
20260509014907 56 245 0.0 0.0 0.00 0.00 0.00 68 1010.9
20260509014903 56 245 0.0 0.0 0.00 0.00 0.00 69 1010.9
20260509013759 56 245 0.0 0.0 0.00 0.00 0.00 69 1011.0
20260509013403 56 245 0.0 0.0 0.00 0.00 0.00 69 1010.8
20260509012257 57 245 0.0 0.0 0.00 0.00 0.00 68 1010.9
20260509011757 57 245 0.0 0.0 0.00 0.00 0.00 68 1010.9
20260509011256 57 245 0.0 0.0 0.00 0.00 0.00 66 1010.8
20260509010757 58 245 0.0 0.0 0.00 0.00 0.00 66 1010.7
20260509010302 58 245 0.0 0.0 0.00 0.00 0.00 66 1010.7
20260509005757 58 245 0.0 0.0 0.00 0.00 0.00 65 1010.6
20260509005257 58 245 0.0 0.0 0.00 0.00 0.00 65 1010.6
20260509004757 59 245 0.0 0.0 0.00 0.00 0.00 64 1010.7
20260509004317 59 245 0.0 0.0 0.00 0.00 0.00 64 1010.7
20260509003757 59 245 0.0 0.0 0.00 0.00 0.00 63 1010.7
20260509003257 60 245 0.0 0.0 0.00 0.00 0.00 63 1010.6
20260509002755 60 245 0.0 0.0 0.00 0.00 0.00 60 1010.7
20260509002253 60 245 0.0 0.0 0.00 0.00 0.00 60 1010.6
20260509001753 61 245 0.0 0.0 0.00 0.00 0.00 58 1010.6
20260509001252 61 245 0.0 0.0 0.00 0.00 0.00 56 1010.5
20260509000753 62 245 0.0 0.0 0.00 0.00 0.00 56 1010.5
20260509000253 62 245 0.0 0.0 0.00 0.00 0.00 53 1010.5
20260508235752 63 245 0.0 0.0 0.00 0.00 0.00 51 1010.4
20260508235256 63 245 0.0 0.0 0.00 0.00 0.00 49 1010.4
20260508235251 64 245 0.0 0.0 0.00 0.00 0.00 48 1010.3
20260508234255 65 245 0.0 0.0 0.00 0.00 0.00 44 1010.2
20260508234251 65 245 0.0 0.0 0.00 0.00 0.00 47 1010.2
20260508233250 66 245 0.0 0.0 0.00 0.00 0.00 43 1010.2
20260508232752 66 245 0.0 0.0 0.00 0.00 0.00 41 1009.9
20260508232747 66 245 0.0 0.0 0.00 0.00 0.00 40 1009.9
20260508231747 66 245 0.0 0.0 0.00 0.00 0.00 40 1009.9
20260508231245 66 13 0.0 0.0 0.00 0.00 0.00 41 1009.8
20260508230745 65 13 0.0 0.0 0.00 0.00 0.00 41 1009.8
20260508230249 66 5 0.0 0.0 0.00 0.00 0.00 40 1009.8
20260508230245 66 26 0.0 0.0 0.00 0.00 0.00 42 1009.8
20260508225744 66 303 0.0 0.0 0.00 0.00 0.00 40 1009.8
20260508225349 66 265 0.0 0.0 0.00 0.00 0.00 41 1009.9